Loisir ou Compétition : Rejoignez un Club de la Fédération

Résultats

CHAMPIONNAT REGIONAL INDIVIDUEL/ LES 15 DE TREMONTAGNE

LE GRANDVAUX

FS Dames

Jury de Compétition

Délégué Technique :
FAVROT JEAN PHILIPPE (MJ)
D.T. Adjoint :
 
Dir. Epreuve :
PERROT AURELIEN (MJ)

Caractéristiques de la Piste

Piste :
Stade Jason lamt-Chappuis
Distance :
3 km
Point Haut :
 
Point Bas :
 
Montée Tot. :
 
Montée Max. :
 
Homologation :
 

Pénalité Appliquée :
 
Coefficient :
 

Catégorie :
U14
Style :
C
Clt Dos Clt/Cat Code An Nom Prénom Com Club Temps Ecart Points
Classés
1 15 1/U14 FFS2687286 2004 TOURNUT TATIANA MJ BOIS D'AMONT 18:06.4 00:00.0
2 1 2/U14 FFS2681392 2004 LOMBARDOT EGLANTINE MJ ES SAUGETTE 18:35.4 00:29.0
3 16 3/U14 FFS2676456 2004 TISSOT LOUISE MJ CSR PONTARLI 18:37.7 00:31.3
4 27 4/U14 FFS2683910 2003 COURVOISIER LEA MJ SC MONT NOIR 18:44.6 00:38.2
5 49 5/U14 FFS2676339 2003 NICOD MARION MJ OLYMP MT DOR 18:47.4 00:41.0
6 43 6/U14 FFS2682602 2003 LEGENDRE TYFAINE MJ A.S MOUTHE 18:50.9 00:44.5
7 29 7/U14 FFS2681387 2004 BAVEREL JULIE MJ ES SAUGETTE 19:05.8 00:59.4
8 46 8/U14 FFS2686889 2004 REMONNAY OPHELIE MJ OYE-PALLET 19:09.2 01:02.8
9 38 9/U14 FFS2681114 2003 HUYGHE LOU MJ SC ABBAYE 19:21.9 01:15.5
10 35 10/U14 FFS2665796 2003 NIGGLI ALINA MJ PREMANON SC 19:26.9 01:20.5
11 13 11/U14 FFS2686887 2004 DE OLIVERA VALENTINE MJ OYE-PALLET 19:28.0 01:21.6
12 42 12/U14 FFS2683259 2003 ARDIET ELEONORE MJ A.S MOUTHE 19:41.7 01:35.3
13 40 13/U14 FFS2681411 2004 LEPINE LEONIE MJ ES SAUGETTE 19:43.4 01:37.0
14 41 14/U14 FFS2681102 2003 BLANC ANNA MJ SC ABBAYE 19:45.7 01:39.3
15 12 15/U14 FFS2682509 2003 PERRIN EVA MJ SC VERRIERES 19:47.1 01:40.7
16 26 16/U14 FFS2676115 2003 MAUGAIN FLAVIE MJ ES SAUGETTE 19:49.5 01:43.1
17 32 17/U14 FFS2681174 2003 THERY LENA MJ OYE-PALLET 20:15.6 02:09.2
18 2 18/U14 FFS2681805 2004 BOUTON MELIE MJ HT JURA SKI 20:19.2 02:12.8
19 37 19/U14 FFS2685603 2003 PREVALET STEPHANIE MJ A.S MOUTHE 20:20.2 02:13.8
20 6 20/U14 FFS2689683 2004 BLONDEAU LUCIE MJ CHAUX NEUVE 20:30.0 02:23.6
21 25 21/U14 FFS2681137 2003 CORBEFIN CAMILLE MJ BOIS D'AMONT 20:30.3 02:23.9
22 11 22/U14 FFS2679749 2004 DAUVERGNE LISON MJ HT JURA SKI 20:33.0 02:26.6
23 17 23/U14 FFS2676811 2003 BAVEREL LOANE MJ ES SAUGETTE 20:42.7 02:36.3
24 44 24/U14 FFS2686201 2004 BLONDEAU VALENTINE MJ SC MONT NOIR 20:44.7 02:38.3
25 39 25/U14 FFS2677085 2003 PELLEGRINI LILLY MJ OYE-PALLET 20:56.5 02:50.1
26 33 26/U14 FFS2681172 2003 SALVI LISA MJ OYE-PALLET 21:22.3 03:15.9
27 28 27/U14 FFS2671248 2004 MICHAUD FIDEY LOU MJ CHAUX NEUVE 21:32.8 03:26.4
28 20 28/U14 FFS2681400 2004 CAPELLI LILY ROSE MJ ES SAUGETTE 21:35.2 03:28.8
29 36 29/U14 FFS2686942 2004 WATTEBLED ANNA MJ A.S MOUTHE 21:36.5 03:30.1
30 5 30/U14 FFS2671251 2003 LEMAIRE LUCIE MJ CSR PONTARLI 21:40.3 03:33.9
31 8 31/U14 FFS2686205 2004 CHAMBELLAND AGATHE MJ SC ABBAYE 21:53.0 03:46.6
32 47 32/U14 FFS2671304 2003 CAILLAT MANON MJ SKI ROUSSES 21:57.5 03:51.1
33 4 33/U14 FFS2671260 2003 ALPY LOU MJ CSR PONTARLI 21:57.9 03:51.5
34 7 34/U14 FFS2682542 2003 LECOULTRE LARA MJ OLYMP MT DOR 22:15.8 04:09.4
35 21 35/U14 FFS2682511 2003 FAIVRE MARGOT MJ SC VERRIERES 22:23.8 04:17.4
36 18 36/U14 FFS2690040 2004 LACROIX SARAH MJ BOIS D'AMONT 23:06.1 04:59.7
37 3 37/U14 FFS2683261 2003 CLADEN SALOME MJ A.S MOUTHE 23:12.3 05:05.9
38 31 38/U14 FFS2681170 2003 ROUSSEL JEANNE MJ OYE-PALLET 23:21.2 05:14.8
39 10 39/U14 FFS2685677 2003 GRAPPE HANNA MJ SC GRANDVAUX 23:22.4 05:16.0
40 22 40/U14 FFS2676449 2003 KOGLER EMELINE MJ CSR PONTARLI 23:26.4 05:20.0
41 48 41/U14 FFS2690039 2004 GALAND CASSANDRA MJ BOIS D'AMONT 23:34.0 05:27.6
42 30 42/U14 FFS2666660 2004 KAUTEN JOSEPHINE MJ SKI ROUSSES 24:15.0 06:08.6
43 14 43/U14 FFS2683474 2003 DUINAT ROXANE MJ SC GRANDVAUX 25:22.6 07:16.2
44 19 44/U14 FFS2686961 2004 BRENIAUX ISALYNE MJ PREMANON SC 26:13.5 08:07.1
45 24 45/U14 FFS2686979 2004 TROSSAT CELIA MJ SC ABBAYE 27:03.8 08:57.4
46 45 46/U14 FFS2690449 2004 LAMOTTE MAYLIS MJ BOIS D'AMONT 29:39.8 11:33.4
Abandons
34 FFS2671253 2003 BOLE ISALINE MJ CSR PONTARLI
Non partants
9 FFS2687622 2003 FOREY ROMANE MJ SC GRANDVAUX
23 FFS2665617 2004 GARDONI MAELA LY SC LOMPNES